Regional Weather Roundup
Issued by NWS Albany, NY

Home | Current Version | Previous Version | Graphics & Text | Print | Product List | Glossary On
Versions: 1 2 3 4 5 6 7 8 9 10 11 12 13 14 15 16 17 18 19 20 21 22 23 24 25 26 27 28 29 30 31 32 33 34 35 36 37 38 39 40 41 42 43 44 45 46 47 48 49 50
000
ASUS41 KALY 151210
RWRALY

NEW YORK STATE HOURLY WEATHER ROUNDUP
NATIONAL WEATHER SERVICE ALBANY NY
800 AM EDT MON SEP 15 2014

NOTE: "FAIR" INDICATES FEW OR NO CLOUDS BELOW 12,000 FEET WITH NO
SIGNIFICANT WEATHER AND/OR NO OBSTRUCTIONS TO VISIBILITY.

NYZ032-033-038>043-046>054-057>066-NYZ062>081-151300-
EAST


CITY           SKY/WX    TMP DP  RH WIND       PRES   REMARKS
ALBANY         FOG       44  42  93 CALM      30.26F VSB 1/4
GLENS FALLS    FOG       46  44  93 CALM      30.26S VSB<1/4
POUGHKEEPSIE   SUNNY     48  45  89 S5        30.25S
NEWBURGH       MOSUNNY   48  48 100 CALM      30.27R
MONTGOMERY     MOSUNNY   47  45  93 CALM      30.25F
WHITE PLAINS   MOSUNNY   52  45  77 CALM      30.24R
ISLIP          MOSUNNY   57  51  80 N8        30.22S
NEW YORK CITY  MOSUNNY   57  46  66 NE7       30.24S
CENTRAL PARK   SUNNY     57  43  59 VRB5      30.27S
$$

NYZ005>009-017-018-044>046-055-056-151300-
CENTRAL


CITY           SKY/WX    TMP DP  RH WIND       PRES   REMARKS
FULTON         CLOUDY    46  43  89 E3        30.23S
SYRACUSE       PTSUNNY   48  43  82 E5        30.24S
ROME           SUNNY     42  40  92 E3        30.27S
ELMIRA         PTSUNNY   49  48  97 CALM      30.25R
BINGHAMTON     MOSUNNY   48  45  89 S3        30.24S
MONTICELLO     CLOUDY    45  45 100 CALM      30.26S
$$

NYZ026>034-041>043-151300-
NORTH


CITY           SKY/WX    TMP DP  RH WIND       PRES   REMARKS
WATERTOWN      CLOUDY    50  40  68 CALM      30.22S
FORT DRUM      NOT AVBL
MASSENA        CLOUDY    45  42  89 CALM      30.22S
SARANAC LAKE   FOG       39  39 100 S5        30.21F VSB 1
PLATTSBURGH    SUNNY     42  39  89 CALM      30.24F
$$

NYZ001>004-010>016-019>021-151300-
WEST


CITY           SKY/WX    TMP DP  RH WIND       PRES   REMARKS
NIAGARA FALLS  PTSUNNY   49  46  90 CALM      30.21S
BUFFALO        PTSUNNY   53  47  79 S6        30.22S
DUNKIRK        CLOUDY    54  49  83 S5        30.22F
JAMESTOWN      CLOUDY    48  45  87 S3        30.24R
WELLSVILLE     MOSUNNY   47  44  90 CALM      30.25S
ROCHESTER      PTSUNNY   51  47  86 SW6       30.23R
PENN YAN       CLOUDY    53  47  79 SW7       30.24R
$$

             KEY
       WCI = WIND CHILL INDEX
       VSB = VISIBILITY
       HX  = HEAT INDEX
$$



USA.gov is the U.S. government's official web portal to all federal, state and local government web resources and services.